Weather History for KBVN - November, 2011

Change the Weather History Date:

Thursday, November 10, 2011

  Actual Average (KOFK) Record (KOFK)
Temperature  
Mean Temperature 36 °F 39 °F  
Max Temperature 50 °F 51 °F 81 °F (1912)
Min Temperature 22 °F 28 °F -9 °F (1986)
Degree Days  
Heating Degree Days 29 26  
Month to date heating degree days 231  
Since 1 July heating degree days 816  
Cooling Degree Days 0 0  
Month to date cooling degree days 0  
Year to date cooling degree days 915  
Moisture  
Dew Point 16 °F    
Average Humidity 46    
Maximum Humidity 69    
Minimum Humidity 27    
Precipitation  
Precipitation 0.00 in 0.05 in 0.80 in (1915)
Month to date precipitation 0.49  
Year to date precipitation 25.78  
Snow  
Snow 0.00 in 0.10 in - ()
Month to date snowfall 0.9  
Since 1 July snowfall 1.7  
Snow Depth -    
Sea Level Pressure  
Sea Level Pressure 30.18 in    
Wind  
Wind Speed 6 mph (WNW)    
Max Wind Speed 13 mph    
Max Gust Speed 16 mph    
Visibility 10 miles    
Events      
T = Trace of Precipitation, MM = Missing Value Source: NWS Daily Summary

Daily Weather History Graph

Daily Weather History Graph

Search for Another Location

Airport or City:

Trip Planner

Search our weather history database for the weather conditions in past years. The results will help you decide how hot, cold, wet, or windy it might be!

Date:

Astronomy

Nov. 10, 2011 Rise Set
Actual Time 7:15 AM CST 5:16 PM CST
Civil Twilight 6:45 AM CST 5:46 PM CST
Nautical Twilight 6:12 AM CST 6:19 PM CST
Astronomical Twilight 5:39 AM CST 6:52 PM CST
Moon 5:04 PM CST (11/10) 7:09 AM CST (11/10)
Length of Visible Light 11h 00m
Length of Day
10h 01m
Full, 100% of the Moon is Illuminated
Nov 10
Full
Nov 10
Full
Nov 18
Last Quarter
Nov 25
New
Dec 2
First Quarter

Hourly Weather History & Observations

Time (CST) Temp. Windchill Dew Point Humidity Pressure Visibility Wind Dir Wind Speed Gust Speed Precip Events Conditions
12:15 AM 29.7 °F 22.8 °F 13.6 °F 51% 30.29 in 10.0 mi WNW 6.9 mph - N/A   Clear
12:35 AM 28.4 °F 21.2 °F 14.5 °F 56% 30.29 in 10.0 mi NW 6.9 mph - N/A   Clear
1:15 AM 29.5 °F 21.1 °F 15.1 °F 55% 30.29 in 10.0 mi NW 9.2 mph - N/A   Clear
1:35 AM 30.2 °F 22.6 °F 14.9 °F 53% 30.28 in 10.0 mi NNW 8.1 mph - N/A   Clear
1:55 AM 30.7 °F 23.3 °F 14.7 °F 52% 30.28 in 10.0 mi NNW 8.1 mph - N/A   Clear
2:15 AM 30.0 °F 22.4 °F 14.2 °F 52% 30.28 in 10.0 mi NNW 8.1 mph - N/A   Clear
2:35 AM 27.7 °F 20.4 °F 14.0 °F 57% 30.29 in 10.0 mi NNW 6.9 mph - N/A   Clear
3:15 AM 30.2 °F 25.4 °F 13.5 °F 50% 30.29 in 10.0 mi NW 4.6 mph - N/A   Clear
3:35 AM 29.1 °F 23.0 °F 13.6 °F 52% 30.29 in 10.0 mi NW 5.8 mph - N/A   Clear
3:55 AM 26.4 °F 18.0 °F 14.0 °F 59% 30.28 in 10.0 mi NW 8.1 mph - N/A   Clear
4:15 AM 27.5 °F 19.3 °F 14.5 °F 58% 30.27 in 10.0 mi NW 8.1 mph - N/A   Clear
4:35 AM 27.9 °F 19.8 °F 14.5 °F 57% 30.27 in 10.0 mi NW 8.1 mph - N/A   Clear
4:55 AM 27.3 °F 20.9 °F 14.0 °F 57% 30.27 in 10.0 mi NW 5.8 mph - N/A   Clear
5:15 AM 26.1 °F 18.4 °F 14.5 °F 62% 30.27 in 10.0 mi NW 6.9 mph - N/A   Clear
5:55 AM 27.0 °F 19.5 °F 14.4 °F 59% 30.28 in 10.0 mi NNW 6.9 mph - N/A   Clear
6:15 AM 25.5 °F 17.8 °F 14.0 °F 62% 30.28 in 10.0 mi NNW 6.9 mph - N/A   Clear
6:35 AM 25.2 °F 18.3 °F 14.4 °F 64% 30.28 in 10.0 mi NNW 5.8 mph - N/A   Clear
7:15 AM 22.8 °F - 13.8 °F 68% 30.29 in 10.0 mi Calm Calm - N/A   Clear
7:35 AM 22.5 °F - 13.8 °F 69% 30.29 in 10.0 mi Calm Calm - N/A   Clear
7:55 AM 24.4 °F - 14.4 °F 66% 30.29 in 10.0 mi Calm Calm - N/A   Clear
8:35 AM 30.2 °F - 17.2 °F 59% 30.29 in 10.0 mi Calm Calm - N/A   Clear
8:55 AM 32.0 °F 28.7 °F 16.7 °F 53% 30.29 in 10.0 mi NW 3.5 mph - N/A   Clear
9:35 AM 36.1 °F 32.3 °F 16.2 °F 44% 30.28 in 10.0 mi North 4.6 mph - N/A   Clear
9:55 AM 38.3 °F 34.8 °F 16.0 °F 40% 30.28 in 10.0 mi NNW 4.6 mph - N/A   Clear
10:15 AM 40.1 °F 36.1 °F 15.6 °F 37% 30.27 in 10.0 mi North 5.8 mph - N/A   Clear
10:35 AM 41.5 °F 36.4 °F 12.9 °F 31% 30.27 in 10.0 mi North 8.1 mph - N/A   Clear
10:55 AM 42.6 °F 37.2 °F 12.4 °F 29% 30.26 in 10.0 mi NNW 9.2 mph - N/A   Clear
11:15 AM 43.7 °F 41.1 °F 13.6 °F 30% 30.25 in 10.0 mi NNW 4.6 mph - N/A   Clear
11:35 AM 44.1 °F 41.5 °F 12.9 °F 28% 30.25 in 10.0 mi NW 4.6 mph - N/A   Clear
11:55 AM 45.5 °F 41.8 °F 13.3 °F 27% 30.23 in 10.0 mi NW 6.9 mph - N/A   Clear
12:15 PM 45.9 °F 40.0 °F 12.9 °F 27% 30.22 in 10.0 mi West 12.7 mph 16.1 mph N/A   Clear
12:35 PM 46.4 °F 41.9 °F 13.6 °F 27% 30.21 in 10.0 mi West 9.2 mph - N/A   Clear
12:55 PM 46.9 °F - 14.5 °F 27% 30.19 in 10.0 mi NW 8.1 mph - N/A   Clear
1:15 PM 47.7 °F - 16.2 °F 28% 30.18 in 10.0 mi West 5.8 mph - N/A   Clear
1:35 PM 48.2 °F - 16.7 °F 29% 30.17 in 10.0 mi West 6.9 mph - N/A   Clear
1:55 PM 48.6 °F - 17.1 °F 29% 30.16 in 10.0 mi West 8.1 mph - N/A   Clear
2:15 PM 49.3 °F - 17.2 °F 28% 30.15 in 10.0 mi West 8.1 mph - N/A   Clear
2:35 PM 50.0 °F - 17.4 °F 28% 30.13 in 10.0 mi WSW 5.8 mph - N/A   Clear
2:55 PM 50.2 °F - 18.0 °F 28% 30.13 in 10.0 mi WSW 10.4 mph - N/A   Clear
3:15 PM 50.0 °F - 18.3 °F 29% 30.11 in 10.0 mi West 8.1 mph - N/A   Clear
3:35 PM 50.0 °F - 18.9 °F 29% 30.11 in 10.0 mi SW 8.1 mph - N/A   Clear
3:55 PM 50.0 °F - 18.7 °F 29% 30.09 in 10.0 mi SW 6.9 mph - N/A   Clear
4:15 PM 49.3 °F - 18.7 °F 30% 30.09 in 10.0 mi SSW 8.1 mph - N/A   Clear
4:35 PM 48.4 °F - 18.7 °F 31% 30.08 in 10.0 mi SSW 5.8 mph - N/A   Clear
4:55 PM 45.7 °F 43.4 °F 18.5 °F 34% 30.07 in 10.0 mi South 4.6 mph - N/A   Clear
5:15 PM 43.0 °F 38.8 °F 18.5 °F 37% 30.06 in 10.0 mi SSE 6.9 mph - N/A   Clear
5:35 PM 40.8 °F 37.8 °F 18.5 °F 41% 30.05 in 10.0 mi SSE 4.6 mph - N/A   Clear
5:55 PM 38.3 °F 33.9 °F 18.5 °F 45% 30.05 in 10.0 mi SSE 5.8 mph - N/A   Clear
6:15 PM 37.2 °F 34.7 °F 18.9 °F 48% 30.03 in 10.0 mi SSE 3.5 mph - N/A   Clear
6:35 PM 36.1 °F 33.5 °F 18.7 °F 49% 30.02 in 10.0 mi SSE 3.5 mph - N/A   Clear
6:55 PM 36.1 °F - 18.7 °F 49% 30.02 in 10.0 mi Calm Calm - N/A   Clear
7:15 PM 33.4 °F - 19.4 °F 56% 30.01 in 10.0 mi Calm Calm - N/A   Clear
7:35 PM 33.1 °F 30.0 °F 19.6 °F 58% 30.01 in 10.0 mi SE 3.5 mph - N/A   Clear
7:55 PM 34.7 °F 30.6 °F 19.6 °F 54% 30.01 in 10.0 mi SE 4.6 mph - N/A   Clear
8:15 PM 32.4 °F 26.0 °F 20.3 °F 61% 29.99 in 10.0 mi SE 6.9 mph - N/A   Clear
8:35 PM 33.1 °F 26.9 °F 21.2 °F 62% 29.99 in 10.0 mi SE 6.9 mph - N/A   Clear
8:55 PM 33.3 °F 27.1 °F 21.2 °F 61% 29.98 in 10.0 mi SE 6.9 mph - N/A   Clear
9:15 PM 31.5 °F 24.9 °F 21.4 °F 66% 29.97 in 10.0 mi SE 6.9 mph - N/A   Clear
9:35 PM 32.0 °F 26.4 °F 21.6 °F 65% 29.97 in 10.0 mi SSE 5.8 mph - N/A   Clear
9:55 PM 30.2 °F 24.3 °F 21.6 °F 70% 29.96 in 10.0 mi SSE 5.8 mph - N/A   Clear
10:15 PM 30.6 °F 23.8 °F 22.1 °F 71% 29.95 in 10.0 mi SSE 6.9 mph - N/A   Clear
10:35 PM 33.1 °F 26.1 °F 23.9 °F 69% 29.94 in 10.0 mi SSE 8.1 mph - N/A   Clear
10:55 PM 34.0 °F 26.6 °F 24.4 °F 68% 29.92 in 10.0 mi SSE 9.2 mph - N/A   Clear
11:15 PM 34.2 °F 26.8 °F 24.6 °F 68% 29.91 in 10.0 mi SSE 9.2 mph - N/A   Clear
11:35 PM 34.0 °F 27.2 °F 24.8 °F 69% 29.90 in 10.0 mi SSE 8.1 mph - N/A   Clear